Regional Weather Roundup
Issued by NWS

Home | Current Version | Previous Version | Graphics & Text | Print | Product List | Glossary On
Versions: 1 2 3 4 5 6 7 8 9 10 11 12 13 14 15 16 17 18 19 20 21 22 23 24 25 26 27 28 29 30 31 32 33 34 35 36 37 38 39 40 41 42 43 44 45 46 47 48 49 50
000
ASUS43 KOAX 250010
RWRNE

WEATHER ROUNDUP FOR NEBRASKA
NATIONAL WEATHER SERVICE OMAHA NE
600 PM CST WED DEC 24 2014

NOTES: SATELLITE DATA IS BEING USED TO AUGMENT CLOUD COVER ABOVE
       12000 FEET.
       "FAIR" INDICATES FEW OR NO CLOUDS BELOW 12,000 FEET WITH NO
       SIGNIFICANT WEATHER AND/OR OBSTRUCTIONS TO VISIBILITY.

  * THESE STATIONS DO NOT REPORT WEATHER SUCH AS RAIN...SNOW OR FOG.

NEZ001>004-019>022-054>056-250100-
NEBRASKA PANHANDLE

CITY           SKY/WX    TMP DP  RH WIND       PRES   REMARKS
SCOTTSBLUFF    PTCLDY    41  26  55 W12       29.57F
6HR MIN TEMP:  27; 6HR MAX TEMP:  44;

ALLIANCE       MOCLDY    33  24  69 S6        29.56F WCI  28
6HR MIN TEMP:  33; 6HR MAX TEMP:  42;

CHADRON        CLOUDY    35  25  66 W7        29.53F WCI  29
6HR MIN TEMP:  33; 6HR MAX TEMP:  39;

KIMBALL        CLEAR     32  23  71 CALM      29.58F
SIDNEY         MOCLDY    28  21  75 SW9       29.61F WCI  19
6HR MIN TEMP:  28; 6HR MAX TEMP:  39;

$$

NEZ057>060-069>072-079>082-250100-
SOUTHWEST NEBRASKA

CITY           SKY/WX    TMP DP  RH WIND       PRES   REMARKS
NORTH PLATTE   MOCLDY    35  22  58 S7        29.63F WCI  29
6HR MIN TEMP:  33; 6HR MAX TEMP:  43;

IMPERIAL       PTCLDY    35  24  64 SW5       29.63F WCI  31
6HR MIN TEMP:  33; 6HR MAX TEMP:  45;

LEXINGTON      MOCLDY    33  24  70 S7        29.65F WCI  26
MCCOOK         PTCLDY    38  23  55 SW9       29.67F WCI  31
6HR MIN TEMP:  32; 6HR MAX TEMP:  45;

OGALLALA       CLOUDY    33  27  79 W8        29.61F WCI  26
$$

NEZ005>010-023>029-035>040-094-250100-
NORTH CENTRAL NEBRASKA

CITY           SKY/WX    TMP DP  RH WIND       PRES   REMARKS
VALENTINE      MOCLDY    31  24  75 SW8       29.55F WCI  23
6HR MIN TEMP:  30; 6HR MAX TEMP:  37;

AINSWORTH      MOCLDY    33  25  72 SW10      29.56F WCI  25
BROKEN BOW     PTCLDY    35  25  66 S10       29.62F WCI  27
6HR MIN TEMP:  32; 6HR MAX TEMP:  39;

O`NEILL        MOCLDY    31  25  77 S10       29.61F WCI  23
ORD            MOCLDY    33  24  69 S7        29.63F WCI  27
6HR MIN TEMP:  31; 6HR MAX TEMP:  38;

THEDFORD       MOCLDY    36  27  71 S10       29.59S WCI  28
$$

NEZ041-046>049-061>064-073>077-083>087-250100-
SOUTH CENTRAL NEBRASKA

CITY           SKY/WX    TMP DP  RH WIND       PRES   REMARKS
GRAND ISLAND   PTCLDY    32  23  69 S7        29.69F WCI  26
6HR MIN TEMP:  32; 6HR MAX TEMP:  40;

AURORA         PTCLDY    32  24  73 SW5       29.70F WCI  27
HASTINGS       PTCLDY    36  21  54 SW8       29.70F WCI  30
6HR MIN TEMP:  33; 6HR MAX TEMP:  40;

HEBRON         CLEAR     33  23  65 SW6       29.76S WCI  28
HOLDREGE       PTCLDY    34  23  63 SW9       29.68F WCI  27
KEARNEY *      PTCLDY    34  23  64 S9        29.68F WCI  26
YORK           CLEAR     32  27  80 SW7       29.71F WCI  26
$$

NEZ011>018-030>034-042>045-250100-
NORTHEAST NEBRASKA

CITY           SKY/WX    TMP DP  RH WIND       PRES   REMARKS
NORFOLK        CLEAR     24  22  91 SE7       29.67F WCI  16
6HR MIN TEMP:  24; 6HR MAX TEMP:  29;

ALBION         FAIR      31  24  78 S6        29.66F WCI  25
BLAIR          CLOUDY    30  27  86 SW12      29.74S WCI  21
COLUMBUS *     CLEAR     28  21  74 S6        29.71F WCI  22
FREMONT        PTCLDY    30  28  91 S5        29.74F WCI  25
TEKAMAH        CLOUDY    30  26  85 SW9       29.74F WCI  22
6HR MIN TEMP:  29; 6HR MAX TEMP:  31;

WAYNE          PTCLDY    26  25  94 S6        29.69F WCI  20
$$

NEZ050>053-065>068-078-088>093-250100-
SOUTHEAST NEBRASKA

CITY           SKY/WX    TMP DP  RH WIND       PRES   REMARKS
LINCOLN        CLEAR     27  24  89 S7        29.77S WCI  19
6HR MIN TEMP:  27; 6HR MAX TEMP:  33;

OMAHA EPPLEY   CLOUDY    30  26  85 SW9       29.78S WCI  22
6HR MIN TEMP:  30; 6HR MAX TEMP:  31;

BEATRICE       CLEAR     29  27  92 S6        29.77F WCI  23
FALLS CITY     CLOUDY    32  27  81 SW9       29.81S WCI  24
6HR MIN TEMP:  32; 6HR MAX TEMP:  35;

NEBRASKA CITY  CLOUDY    31  29  93 SW6       29.79S WCI  25
PLATTSMOUTH    CLOUDY    30  26  86 SW5       29.77S WCI  25
$$

NEZ044-045-051>053-067-250100-
OMAHA AREA

CITY           SKY/WX    TMP DP  RH WIND       PRES   REMARKS
OMAHA EPPLEY   CLOUDY    30  26  85 SW9       29.78S WCI  22
6HR MIN TEMP:  30; 6HR MAX TEMP:  31;

BLAIR          CLOUDY    30  27  86 SW12      29.74S WCI  21
FREMONT        PTCLDY    30  28  91 S5        29.74F WCI  25
MILLARD        CLOUDY    31  27  83 CALM      29.76S
OFFUTT AFB     CLOUDY    30  26  84 SW8       29.77S WCI  23
PLATTSMOUTH    CLOUDY    30  26  86 SW5       29.77S WCI  25
WAHOO          FAIR      28  25  88 S7        29.75F WCI  21
$$



USA.gov is the U.S. government's official web portal to all federal, state and local government web resources and services.